Flag for India Weather past 2 weeks in Thiruvananthapuram, Kerala, India

Now
81 °F

More clouds than sun.


Feels Like: 85 °F
Forecast: 78 / 83 °F
Wind: 7 mph from Northwest

Location: Thiruvananthapuram

Current Time: Aug 1, 2014 at 5:01:51 PM

Latest Report: Aug 1, 2014 at 3:40 PM


Visibility: 2 mi

Pressure: 29.77 "Hg

Humidity: 79%

Dew point: 73 °F

Location of ThiruvananthapuramLocation

Historic Weather in Thiruvananthapuram — Graph

°F

Thiruvananthapuram temperature yesterday

Maximum temperature yesterday: 90 °F (at 11:40 AM)
Minimum temperature yesterday: 75 °F (at 11:40 PM)
Average temperature yesterday: 83 °F

Past Weeks' High & Low Weather Summary

 TemperatureHumidityPressure
High90 °F (Jul 24, 1:40 PM)94% (Jul 20, 5:40 AM)29.92 "Hg (Jul 20, 5:40 AM)
Low75 °F (Jul 20, 5:40 AM)63% (Jul 25, 2:40 PM)29.71 "Hg (Jul 17, 4:40 PM)
Average82 °F81%29.81 "Hg
* Reported Jul 17 3:40 PM — Aug 1 3:40 PM, Thiruvananthapuram, Weather by CustomWeather, © 2014

Note: Actual official high and low records may vary slightly from our data, if they occured in-between our weather recording intervals... More about our weather records

Advertising

Thiruvananthapuram weather history for previous 24 hours

 ConditionsComfort  
Time TempWeatherWind HumidityBarometerVisibility
3:40 PM
Aug 1
81 °FMore clouds than sun.7 mph79%29.77 "Hg2 mi
2:40 PM79 °FMore clouds than sun.6 mph89%29.77 "Hg2 mi
1:40 PM77 °FRain. More clouds than sun.7 mph89%29.83 "Hg2 mi
12:40 PM77 °FHeavy rain. More clouds than sun.12 mph94%29.86 "Hg1 mi
11:40 AM77 °FRain. More clouds than sun.12 mph89%29.86 "Hg1 mi
10:40 AM81 °FBroken clouds.3 mph84%29.83 "Hg2 mi
8:40 AM75 °FDrizzle. More clouds than sun.6 mph94%29.86 "Hg1 mi
6:40 AM77 °FPartly cloudy.3 mph89%29.80 "Hg2 mi
5:40 AM77 °FPartly cloudy.3 mph89%29.80 "Hg2 mi
4:40 AM75 °FPartly cloudy.No wind94%29.77 "Hg2 mi
3:40 AM75 °FLight rain. Mostly cloudy.3 mph94%29.77 "Hg1 mi
2:40 AM77 °FLight rain. Mostly cloudy.3 mph89%29.77 "Hg2 mi
12:40 AM75 °FPartly cloudy.3 mph94%29.83 "Hg2 mi
11:40 PM
Jul 31
75 °FLight rain. Mostly cloudy.8 mph94%29.83 "Hg2 mi
10:40 PM79 °FPassing clouds.5 mph89%29.83 "Hg2 mi
9:40 PM81 °FPassing clouds.6 mph84%29.83 "Hg2 mi
8:40 PM82 °FPassing clouds.5 mph74%29.80 "Hg2 mi
7:40 PM82 °FPassing clouds.5 mph74%29.77 "Hg2 mi
6:40 PM84 °FScattered clouds.6 mph74%29.77 "Hg2 mi
5:40 PM86 °FScattered clouds.7 mph79%29.77 "Hg2 mi
Weather by CustomWeather, © 2014

See weather overviewHow to use our weather pages